Location: Rancho Del Sol Observatory
(38.7214°N, 120.6350°W)
Time: 15:23:16
(UTC-08:00)

Courier 1B Rocket - Pass Details

Date: 03 February 2020
Orbit: 920 x 1202 km, 28.2° (Epoch: 19 February)

Event Time Altitude Azimuth Distance (km) Brightness Sun altitude
Rises 06:19:25 0° 213° (SSW) 4,042 8.0 -9.7°
Reaches altitude 10° 06:23:13 10° 196° (SSW) 3,107 7.6 -9.0°
Maximum altitude 06:28:13 19° 155° (SSE) 2,536 7.7 -8.0°
Drops below altitude 10° 06:33:14 10° 115° (ESE) 3,122 9.3 -7.1°
Sets 06:37:03 0° 98° (E) 4,069 10.6 -6.4°
